This is the latest recevied weather packets stored in our database for station/object N0HEQ. If no packets are shown the sender has not sent any weather packets the latest 10 day(s).
| Time | Temp. | Humidity | Pressure | Rain* | Wind** | Luminosity | Snow |
|---|---|---|---|---|---|---|---|
| 1777762563 | 22.22° C | 11% | 1019.6 hPa | 0 mm | - | 389 W/m² | - |
| 1777762261 | 22.78° C | 11% | 1019.9 hPa | 0 mm | - | 407 W/m² | - |
| 1777761957 | 22.78° C | 10% | 1019.8 hPa | 0 mm | - | 422 W/m² | - |
| 1777761654 | 23.33° C | 10% | 1019.9 hPa | 0 mm | - | 433 W/m² | - |
| 1777761352 | 22.78° C | 11% | 1019.9 hPa | 0 mm | - | 453 W/m² | - |
| 1777761050 | 25.56° C | 11% | 1020.1 hPa | 0 mm | - | 475 W/m² | - |
| 1777760747 | 24.44° C | 11% | 1020 hPa | 0 mm | - | 497 W/m² | - |
| 1777760443 | 22.78° C | 10% | 1020.1 hPa | 0 mm | - | 515 W/m² | - |
| 1777760139 | 23.89° C | 9% | 1020.3 hPa | 0 mm | - | 530 W/m² | - |
| 1777759837 | 24.44° C | 11% | 1020.5 hPa | 0 mm | - | 543 W/m² | - |
| 1777759532 | 24.44° C | 10% | 1020.2 hPa | 0 mm | - | 557 W/m² | - |
| 1777759229 | 23.89° C | 8% | 1020.3 hPa | 0 mm | - | 567 W/m² | - |
| 1777758926 | 23.33° C | 11% | 1020.5 hPa | 0 mm | - | 579 W/m² | - |
| 1777758623 | 23.89° C | 11% | 1020.7 hPa | 0 mm | - | 591 W/m² | - |
| 1777758320 | 23.89° C | 13% | 1020.8 hPa | 0 mm | - | 600 W/m² | - |
| 1777758017 | 23.89° C | 12% | 1020.7 hPa | 0 mm | - | 612 W/m² | - |
| 1777757714 | 22.78° C | 11% | 1021.2 hPa | 0 mm | - | 629 W/m² | - |
| 1777757412 | 22.78° C | 12% | 1020.9 hPa | 0 mm | - | 639 W/m² | - |
| 1777757111 | 22.78° C | 14% | 1021 hPa | 0 mm | - | 652 W/m² | - |
| 1777756808 | 22.78° C | 13% | 1021.3 hPa | 0 mm | - | 664 W/m² | - |
| 1777756503 | 22.22° C | 13% | 1021.3 hPa | 0 mm | - | 677 W/m² | - |
| 1777756201 | 22.22° C | 11% | 1021.4 hPa | 0 mm | - | 691 W/m² | - |
| 1777755897 | 22.78° C | 12% | 1021.6 hPa | 0 mm | - | 699 W/m² | - |
| 1777755595 | 22.78° C | 13% | 1021.5 hPa | 0 mm | - | 709 W/m² | - |
| 1777755290 | 21.67° C | 13% | 1021.6 hPa | 0 mm | - | 722 W/m² | - |
* Rain latest hour (hover to see other rain measurements)
** Current wind speed in m/s (hover to see current wind gust speed)